• En España
  • Lista de países
  • Para 7 días
  • Temperatura del agua
  • Mapa Satelital
  • El tiempo en el mapa
  • Informadores
  • user-avatar
    Iniciar sesión

    Tiempo cada hora Koltakovo

    Hoy, 21 Agosto, Martes

    Tiempo Temperatura Precipitaciones Viento Presión Humedad
    00:00 +17°C° 0 mm 4 mps 734 mmHg 90%
    01:00 +17°C° 0 mm 4 mps 733 mmHg 90%
    02:00 +18°C° 0 mm 4 mps 732 mmHg 91%
    03:00 +18°C° 1 mm 4 mps 732 mmHg 92%
    04:00 +18°C° 1 mm 4 mps 732 mmHg 94%
    05:00 +18°C° 1 mm 4 mps 731 mmHg 95%
    06:00 +17°C° 0,5 mm 5 mps 731 mmHg 94%
    07:00 +16°C° 0,5 mm 5 mps 731 mmHg 94%
    08:00 +16°C° 0 mm 5 mps 731 mmHg 93%
    09:00 +17°C° 0,2 mm 5 mps 732 mmHg 86%
    10:00 +17°C° 0,2 mm 6 mps 732 mmHg 79%
    11:00 +17°C° 0,2 mm 6 mps 732 mmHg 73%
    12:00 +19°C° 0 mm 6 mps 733 mmHg 66%
    13:00 +19°C° 0 mm 6 mps 733 mmHg 59%
    14:00 +20°C° 0 mm 6 mps 733 mmHg 52%
    15:00 +19°C° 0 mm 6 mps 734 mmHg 54%
    16:00 +17°C° 0 mm 5 mps 734 mmHg 55%
    17:00 +17°C° 0 mm 5 mps 734 mmHg 57%
    18:00 +15°C° 0 mm 4 mps 735 mmHg 64%
    19:00 +13°C° 0 mm 3 mps 735 mmHg 70%
    20:00 +13°C° 0 mm 2 mps 735 mmHg 76%
    21:00 +11°C° 0 mm 3 mps 736 mmHg 78%
    22:00 +11°C° 0 mm 3 mps 736 mmHg 80%
    23:00 +10°C° 0 mm 3 mps 736 mmHg 81%

    Mañana, 22 Agosto, Miércoles

    Tiempo Temperatura Precipitaciones Viento Presión Humedad
    00:00 +10°C° 0 mm 3 mps 737 mmHg 82%
    01:00 +10°C° 0 mm 3 mps 737 mmHg 83%
    02:00 +9°C° 0 mm 3 mps 738 mmHg 83%
    03:00 +9°C° 0 mm 3 mps 738 mmHg 85%
    04:00 +9°C° 0 mm 3 mps 738 mmHg 86%
    05:00 +9°C° 0 mm 3 mps 739 mmHg 87%
    06:00 +10°C° 0 mm 4 mps 739 mmHg 80%
    07:00 +11°C° 0 mm 4 mps 740 mmHg 73%
    08:00 +13°C° 0 mm 5 mps 740 mmHg 67%
    09:00 +14°C° 0 mm 5 mps 741 mmHg 61%
    10:00 +15°C° 0 mm 5 mps 741 mmHg 55%
    11:00 +16°C° 0 mm 5 mps 741 mmHg 49%
    12:00 +16°C° 0 mm 5 mps 742 mmHg 48%
    13:00 +17°C° 0 mm 5 mps 742 mmHg 47%
    14:00 +17°C° 0 mm 5 mps 742 mmHg 45%
    15:00 +17°C° 0 mm 4 mps 742 mmHg 48%
    16:00 +17°C° 0 mm 4 mps 742 mmHg 50%
    17:00 +17°C° 0 mm 4 mps 743 mmHg 53%
    18:00 +14°C° 0 mm 3 mps 743 mmHg 60%
    19:00 +13°C° 0 mm 2 mps 743 mmHg 68%
    20:00 +10°C° 0 mm 2 mps 744 mmHg 76%
    21:00 +9°C° 0 mm 2 mps 744 mmHg 78%
    22:00 +9°C° 0 mm 2 mps 744 mmHg 80%
    23:00 +8°C° 0 mm 2 mps 744 mmHg 83%

    Pasado mañana, 23 Agosto, Jueves

    Tiempo Temperatura Precipitaciones Viento Presión Humedad
    00:00 +8°C° 0 mm 2 mps 745 mmHg 83%
    01:00 +8°C° 0 mm 2 mps 745 mmHg 84%
    02:00 +8°C° 0 mm 1 mps 745 mmHg 85%
    03:00 +7°C° 0 mm 2 mps 745 mmHg 86%
    04:00 +7°C° 0 mm 2 mps 745 mmHg 86%
    05:00 +7°C° 0 mm 2 mps 745 mmHg 87%
    06:00 +9°C° 0 mm 2 mps 745 mmHg 79%
    07:00 +12°C° 0 mm 2 mps 745 mmHg 72%
    08:00 +15°C° 0 mm 2 mps 745 mmHg 64%
    09:00 +16°C° 0 mm 3 mps 745 mmHg 59%
    10:00 +18°C° 0 mm 3 mps 745 mmHg 54%
    11:00 +19°C° 0 mm 3 mps 745 mmHg 49%
    12:00 +20°C° 0 mm 3 mps 745 mmHg 48%
    13:00 +20°C° 0 mm 3 mps 745 mmHg 47%
    14:00 +21°C° 0 mm 3 mps 744 mmHg 46%
    15:00 +21°C° 0 mm 3 mps 744 mmHg 49%
    16:00 +20°C° 0 mm 3 mps 744 mmHg 53%
    17:00 +20°C° 0 mm 2 mps 743 mmHg 57%
    18:00 +18°C° 0 mm 2 mps 743 mmHg 64%
    19:00 +16°C° 0 mm 2 mps 743 mmHg 72%
    20:00 +13°C° 0 mm 2 mps 743 mmHg 79%
    21:00 +13°C° 0 mm 2 mps 743 mmHg 81%
    22:00 +12°C° 0 mm 2 mps 743 mmHg 84%
    23:00 +12°C° 0 mm 2 mps 744 mmHg 86%

    24 Agosto, Viernes

    Tiempo Temperatura Precipitaciones Viento Presión Humedad
    00:00 +10°C° 0 mm 2 mps 744 mmHg 88%
    01:00 +10°C° 0 mm 2 mps 743 mmHg 91%
    02:00 +9°C° 0 mm 2 mps 743 mmHg 93%
    03:00 +9°C° 0 mm 2 mps 743 mmHg 94%
    04:00 +9°C° 0 mm 2 mps 743 mmHg 94%
    05:00 +9°C° 0 mm 2 mps 743 mmHg 95%
    06:00 +12°C° 0 mm 2 mps 743 mmHg 87%
    07:00 +14°C° 0 mm 2 mps 743 mmHg 78%
    08:00 +16°C° 0 mm 2 mps 743 mmHg 69%
    09:00 +18°C° 0 mm 3 mps 743 mmHg 63%
    10:00 +19°C° 0 mm 3 mps 743 mmHg 56%
    11:00 +21°C° 0 mm 3 mps 743 mmHg 49%
    12:00 +22°C° 0 mm 3 mps 742 mmHg 48%
    13:00 +22°C° 0 mm 3 mps 742 mmHg 46%
    14:00 +24°C° 0 mm 3 mps 742 mmHg 45%
    15:00 +22°C° 0 mm 3 mps 742 mmHg 49%
    16:00 +23°C° 0 mm 2 mps 741 mmHg 54%
    17:00 +23°C° 0 mm 2 mps 741 mmHg 58%
    18:00 +19°C° 0 mm 2 mps 741 mmHg 65%
    19:00 +17°C° 0 mm 2 mps 741 mmHg 73%
    20:00 +15°C° 0 mm 2 mps 741 mmHg 80%
    21:00 +14°C° 0 mm 2 mps 741 mmHg 82%
    22:00 +14°C° 0 mm 2 mps 741 mmHg 83%
    23:00 +13°C° 0 mm 2 mps 741 mmHg 85%

    25 Agosto, Sábado

    Tiempo Temperatura Precipitaciones Viento Presión Humedad
    00:00 +13°C° 0 mm 2 mps 741 mmHg 87%
    01:00 +13°C° 0 mm 2 mps 741 mmHg 88%
    02:00 +13°C° 0 mm 2 mps 740 mmHg 89%
    03:00 +12°C° 0 mm 3 mps 740 mmHg 88%
    04:00 +11°C° 0 mm 3 mps 740 mmHg 88%
    05:00 +11°C° 0 mm 3 mps 740 mmHg 87%
    06:00 +13°C° 0 mm 3 mps 740 mmHg 80%
    07:00 +15°C° 0 mm 4 mps 740 mmHg 72%
    08:00 +18°C° 0 mm 4 mps 740 mmHg 65%
    09:00 +20°C° 0 mm 4 mps 740 mmHg 58%
    10:00 +21°C° 0 mm 5 mps 740 mmHg 52%
    11:00 +23°C° 0 mm 5 mps 740 mmHg 45%
    12:00 +25°C° 0 mm 5 mps 740 mmHg 43%
    13:00 +25°C° 0 mm 5 mps 740 mmHg 42%
    14:00 +26°C° 0 mm 5 mps 740 mmHg 41%
    15:00 +25°C° 0 mm 4 mps 739 mmHg 45%
    16:00 +25°C° 0 mm 4 mps 739 mmHg 50%
    17:00 +24°C° 0 mm 3 mps 739 mmHg 54%
    18:00 +21°C° 0 mm 3 mps 739 mmHg 60%
    19:00 +19°C° 0 mm 3 mps 739 mmHg 65%
    20:00 +18°C° 0 mm 3 mps 739 mmHg 70%
    21:00 +17°C° 0 mm 3 mps 739 mmHg 71%
    22:00 +17°C° 0 mm 3 mps 739 mmHg 72%
    23:00 +16°C° 0 mm 3 mps 739 mmHg 74%

    26 Agosto, Domingo

    Tiempo Temperatura Precipitaciones Viento Presión Humedad
    00:00 +16°C° 0 mm 3 mps 739 mmHg 75%
    01:00 +14°C° 0 mm 3 mps 739 mmHg 75%
    02:00 +14°C° 0 mm 3 mps 740 mmHg 76%
    03:00 +14°C° 0 mm 3 mps 740 mmHg 78%
    04:00 +13°C° 0 mm 3 mps 740 mmHg 79%
    05:00 +13°C° 0 mm 3 mps 740 mmHg 81%
    06:00 +14°C° 0 mm 3 mps 740 mmHg 76%
    07:00 +17°C° 0 mm 3 mps 740 mmHg 70%
    08:00 +19°C° 0 mm 3 mps 741 mmHg 65%
    09:00 +21°C° 0 mm 3 mps 741 mmHg 59%
    10:00 +23°C° 0 mm 4 mps 741 mmHg 53%
    11:00 +26°C° 0 mm 4 mps 741 mmHg 47%
    12:00 +26°C° 0 mm 4 mps 741 mmHg 44%
    13:00 +27°C° 0 mm 4 mps 740 mmHg 42%
    14:00 +28°C° 0 mm 4 mps 740 mmHg 40%
    15:00 +27°C° 0 mm 3 mps 740 mmHg 45%
    16:00 +26°C° 0 mm 3 mps 740 mmHg 50%
    17:00 +25°C° 0 mm 3 mps 740 mmHg 54%
    18:00 +22°C° 0 mm 3 mps 740 mmHg 60%
    19:00 +20°C° 0 mm 3 mps 740 mmHg 65%
    20:00 +18°C° 0 mm 3 mps 740 mmHg 71%
    21:00 +18°C° 0 mm 3 mps 740 mmHg 71%
    22:00 +17°C° 0 mm 3 mps 740 mmHg 72%
    23:00 +16°C° 0 mm 3 mps 740 mmHg 73%
    Mostrar más